STARLINK-2624

operational
NORAD ID: 48358 Int'l Des: 2021-038 Owner: SPXS Country: US Constellation: starlink
LEOCIRCULARSTARLINK_TYPE

STARLINK-2624について

説明を読み込み中...

リアルタイム位置

3D地球を読み込み中...

次回通過

高度履歴

Altitude vs Time

uPlot chart will show altitude changes over time

軌道要素

1 48358U 21038F 25251.85960308 .00001153 00000-0 96276-4 0 9990
2 48358 53.0548 97.8854 0001352 91.7928 268.3216 15.06399240239611
Epoch: Sep 8, 2025 • Age: 10 hours

現在のステータス

高度 547.0 km
速度 7.59 km/s
衛星直下点 15.39°N, 172.09°E
打ち上げ日 May 4, 2021
運用期間 4.3 years
タイプ internet

技術仕様

分類 Payload
質量 260.00 kg
乾燥質量 248.00 kg
総質量 260.00 kg
長さ 0.20 m
直径 2.80 m
スパン 9.00 m
形状 Box + pan
製造者 SPXS
バスタイプ Starlink
フェーズステータス In Orbit
所有者/国 SPXS/US

大規模コンステレーション

Loading constellations...